CAPE
2151 2335 2236 2312 2461 2540 2523 2549 2558 2504 2500 2547 2472 2392 2390 2355 2321 2321 2513 2456 2517 2646 2888 2945 3098 3163 2958 2939 2900 2927 2935 2924 2999 2506 2512 2472 2410 2110 2011 1917 1867 1614 1206 1003 708 698 705 734 865 789 925 654 663 578 661 882 947 836 918 848 627 742 590 479 373 418 621 417 371 292 586 796 612 1002 853 786 1078 1260 994 1339 1321 1055 953 894 935
2099 2180 2299 2316 2380 2471 2402 2413 2443 2419 2410 2413 2428 2424 2448 2495 2452 2499 2486 2605 2564 2596 2819 2905 3045 3110 3034 3138 3236 3146 3112 3125 3167 2824 2569 2614 2190 2156 1958 1910 1834 1562 1257 1233 978 829 825 756 863 852 909 657 693 592 511 566 624 502 875 600 621 900 682 602 504 433 423 943 345 451 692 728 691 945 805 605 629 998 1008 1192 1198 1085 995 798 744
1908 2288 2384 2442 2458 2396 2388 2447 2447 2453 2422 2365 2339 2292 2387 2465 2410 2482 2433 2373 2518 2545 2730 2744 2999 3133 3092 3245 3443 3411 3334 3278 3228 2956 2836 2736 2480 2092 1923 1829 1705 1412 1292 1270 1166 924 854 822 796 770 814 689 846 649 512 611 492 519 527 536 548 519 850 646 545 548 368 530 735 489 463 768 695 613 858 824 877 1062 970 782 589 866 910 802 474
1904 2249 2270 2271 2378 2454 2524 2507 2385 2300 2268 2312 2261 2199 2185 2355 2420 2413 2353 2291 2435 2548 2604 2796 3024 3224 3131 3193 3374 3445 3408 3293 3138 2880 2804 2725 2607 2360 1872 1680 1515 1481 1413 1324 1191 1043 911 864 720 631 686 668 855 822 830 731 860 805 667 877 707 641 976 823 691 512 629 549 949 444 495 589 727 870 886 1078 885 1080 1081 858 1196 1067 975 1051 929
1781 1959 2016 2033 2138 2389 2414 2399 2373 2344 2210 2203 2221 2179 2153 2206 2298 2320 2298 2299 2356 2518 2569 2734 2956 3097 3007 3064 3215 3346 3305 3239 3087 2809 2631 2571 2521 2374 1988 1715 1597 1523 1494 1457 1201 1147 990 971 871 804 762 643 850 833 802 910 924 827 762 854 801 741 915 909 932 874 789 758 703 879 898 845 887 897 882 793 890 1105 1324 1361 1016 917 1256 808 516
1742 1892 1835 1889 2120 2327 2410 2320 2303 2335 2273 2223 2221 2202 2169 2242 2297 2328 2278 2296 2366 2373 2532 2572 2656 2868 2940 2915 3083 3236 3268 3192 3074 2888 2545 2349 2294 2234 2105 1758 1576 1493 1494 1450 1297 1190 1110 1030 1005 917 769 686 776 834 949 924 984 950 842 886 869 842 1128 1150 1094 1158 913 814 844 988 1049 761 981 1106 1185 1123 975 942 1180 1354 1329 1339 1273 901 591
1942 2006 1833 1853 2178 2301 2380 2341 2348 2377 2453 2375 2309 2285 2234 2221 2286 2336 2301 2270 2265 2318 2332 2506 2534 2655 2844 2864 2917 3097 3218 3166 3087 2924 2681 2334 2199 2139 1976 1773 1687 1540 1424 1293 1183 1114 1066 990 1076 1016 834 760 747 889 987 915 928 838 978 1010 1018 982 1052 1107 1237 1160 1071 934 945 1010 990 1277 1122 928 1333 1069 1231 1228 1125 1007 1069 1276 1596 896 835
2206 2256 1918 1930 2271 2424 2383 2387 2508 2536 2541 2605 2514 2396 2343 2318 2401 2432 2474 2366 2278 2295 2296 2378 2520 2508 2668 2779 2836 2939 3092 3091 3058 2948 2717 2371 2121 2043 1918 1753 1710 1625 1539 1415 1280 1216 1139 1043 953 892 837 897 803 941 936 887 870 813 1013 1048 1094 1119 973 1117 1186 1051 1062 949 823 854 1133 986 1431 1194 1228 1166 1128 1315 1355 1189 1082 1112 1042 1149 1085
1900 1895 2004 2112 2448 2645 2609 2576 2660 2683 2665 2748 2639 2538 2508 2522 2541 2574 2594 2499 2370 2343 2368 2335 2469 2521 2500 2649 2714 2705 2783 2856 2883 2828 2693 2421 2153 1952 1863 1711 1665 1656 1594 1511 1385 1306 1222 1107 1015 963 892 766 465 489 631 548 906 885 1127 1105 1125 1136 1103 1031 1184 1078 1029 958 981 1079 1027 1114 967 1168 1194 1273 1181 1006 1468 1564 1211 1169 1161 1033 1216
2186 2100 2334 2483 2522 2590 2844 2786 2830 2904 2827 2825 2870 2732 2633 2634 2574 2648 2716 2660 2579 2569 2544 2506 2448 2518 2516 2594 2652 2650 2605 2631 2291 1969 2020 2410 2240 1941 1778 1636 1589 1602 1602 1535 1427 1363 1319 1207 1065 982 947 804 502 496 270 171 175 643 1181 1066 1085 1118 1108 1110 1084 1079 1031 1030 939 1013 1042 812 821 1173 1080 1028 1146 1575 1432 1474 1169 969 958 962 1066
2011 2094 2163 2166 2355 2586 2617 2720 2813 2787 2772 2788 2835 2798 2793 2792 2793 2843 2818 2759 2664 2749 2740 2638 2525 2488 2510 2540 2619 2578 2565 2485 1876 1704 1630 1613 2051 2014 1798 1652 1483 1541 1580 1559 1470 1409 1384 1318 1172 1050 972 854 650 404 277 70 13 30 242 582 787 1116 1050 1012 1017 990 1052 889 853 924 834 810 803 936 1155 1024 1184 1129 1213 1301 1088 1062 1072 999 824
1938 2373 2372 2598 2622 2645 2618 2721 2793 2888 2954 2946 2994 2992 2870 2840 2872 2890 2867 2847 2880 2791 2846 2788 2809 2610 2521 2532 2537 2565 2582 2074 1760 1625 1558 1537 1505 1900 1813 1690 1421 1470 1553 1555 1481 1426 1415 1400 1292 1133 1018 893 810 768 533 168 140 129 0 17 48 160 550 1041 1056 1106 1080 929 860 937 914 943 990 1114 1006 906 1055 821 920 940 1012 958 936 987 934
2164 2233 2370 2538 2719 2776 2842 2891 2919 2900 2990 2936 2981 3009 3039 3042 3015 3021 2944 2950 2964 3005 2979 2870 2854 2801 2653 2674 2572 2532 2582 2046 1736 1643 1573 1536 1516 1534 1801 1722 1569 1468 1553 1572 1488 1435 1468 1474 1400 1320 1205 1041 905 812 930 762 466 487 409 308 257 0 0 10 254 958 984 1051 915 899 967 922 1045 1103 1243 917 704 647 812 758 679 793 873 862 782
2175 2379 2704 2676 2796 2865 2945 2882 2878 2953 2986 2980 3041 3031 3003 3049 2952 2876 2891 2967 2949 2922 2894 2942 2990 2989 2837 2791 2708 2630 2600 2126 1815 1753 1669 1583 1533 1495 1702 1694 1668 1536 1596 1600 1528 1501 1536 1539 1507 1461 1380 1272 1177 1097 964 844 717 694 614 439 395 336 187 0 0 0 476 650 792 769 930 1186 1301 1574 1053 866 841 781 746 752 784 777 738 694 653
2029 2393 2666 2831 2925 2953 3091 3052 3124 3136 3136 3123 3064 3037 3038 3047 3015 2904 2900 2984 3085 2987 2818 2936 2901 2834 2852 2709 2818 2714 2575 2112 1931 1882 1833 1754 1646 1556 1532 1537 1564 1614 1644 1617 1585 1569 1592 1588 1560 1509 1468 1403 1327 1278 1170 1011 918 878 866 773 613 514 374 224 137 147 239 384 736 949 1073 1312 1379 1396 1228 857 636 715 694 744 625 490 558 572 545
2259 2582 2752 2770 2888 3065 3115 3143 3186 3242 3193 3123 3098 3058 3052 3189 3216 3111 2983 3001 2983 2897 3010 3056 2966 2859 2844 2619 2656 2563 2724 2144 2008 1964 1936 1865 1774 1699 1631 1612 1638 1674 1668 1664 1646 1640 1633 1623 1597 1560 1536 1481 1444 1443 1322 1188 1104 1040 1035 890 790 844 777 666 343 216 324 465 654 954 1404 1040 792 1224 950 569 617 415 143 87 84 80 152 280 396
2530 2762 2636 2863 3054 3228 3216 3204 3286 3269 3283 3255 3220 3132 3192 3259 3316 3238 3120 3100 2956 2966 3047 3066 3102 3080 2983 2698 2654 2805 2763 2564 2117 2076 2019 1956 1880 1808 1736 1698 1699 1739 1739 1720 1714 1699 1674 1629 1612 1589 1542 1543 1551 1574 1488 1353 1282 1258 1198 1091 881 927 949 938 501 176 7 24 171 407 306 271 418 404 296 154 251 122 126 81 90 140 133 166 68
2599 2770 2798 3053 3264 3237 3318 3370 3337 3263 3252 3194 3227 3207 3232 3298 3315 3244 3200 3116 2973 3087 3064 3026 3013 3057 3028 2797 2875 2912 2889 2863 2320 2139 2123 2065 1997 1925 1855 1828 1778 1798 1785 1759 1757 1759 1707 1660 1661 1653 1643 1650 1660 1747 1720 1627 1556 1477 1394 1286 1051 791 979 886 578 384 15 0 0 0 331 402 342 277 177 136 142 106 160 97 167 128 145 97 11
2717 2774 2982 3180 3218 3156 3153 3184 3176 3176 3316 3338 3260 3310 3349 3405 3322 3293 3204 3173 3140 3217 3054 2999 2890 2974 3179 2962 2734 2638 2752 2826 2376 2294 2240 2208 2140 2058 2014 1938 1862 1826 1709 1792 1801 1758 1700 1703 1714 1736 1758 1750 1800 1856 1810 1786 1741 1554 1412 1358 1200 961 756 683 584 366 163 184 72 278 269 236 186 173 136 113 113 123 93 208 105 70 29 4 5
2920 2976 3242 3148 3093 3211 3178 3342 3336 3284 3374 3372 3341 3422 3515 3458 3453 3437 3382 3230 3272 3296 3103 2845 3125 3168 2944 2919 2861 2790 2915 3239 2572 2420 2347 2343 2282 2159 2107 2062 1976 1867 1745 1739 1806 1777 1726 1743 1787 1815 1802 1812 1962 2012 1981 1938 1913 1818 1577 1374 1269 1112 804 656 507 617 429 527 466 221 312 42 44 49 84 110 129 117 84 94 97 25 6 7 3
3052 3268 3278 3166 3218 3422 3443 3521 3438 3364 3426 3533 3473 3444 3552 3562 3499 3615 3527 3368 3390 3357 3258 3099 3014 3216 3142 2937 2894 2920 2926 3131 2762 2546 2446 2410 2370 2298 2210 2100 2038 1844 1772 1736 1701 1753 1783 1804 1822 1874 1856 2008 2135 2230 2216 2093 1972 1859 1722 1457 1152 994 811 794 568 410 825 703 529 238 43 3 5 67 100 106 102 110 88 46 15 43 22 2 1
3497 3524 3523 3352 3255 3140 3279 3516 3615 3565 3677 3784 3798 3735 3678 3520 3410 3502 3392 3451 3431 3292 3442 3292 3406 3181 3191 3196 3034 3117 3085 2872 3059 2617 2557 2468 2448 2434 2338 2240 2055 1922 1810 1721 1726 1682 1749 1857 1928 1970 2117 2408 2509 2446 2328 2141 1934 1734 1568 1432 1171 925 1032 739 805 467 569 540 286 114 35 17 74 92 99 114 131 125 61 20 0 0 0 0 0
3295 3408 3451 3353 3467 3429 3608 3731 3740 3759 3946 3926 3838 3804 3860 3721 3649 3739 3630 3596 3538 3514 3501 3416 3324 3393 3413 3265 3404 3348 3445 3112 2705 2636 2592 2547 2517 2477 2428 2329 2199 2029 1872 1839 1773 1788 1850 1911 1982 2167 2520 2607 2513 2287 2103 1934 1788 1639 1472 1261 1025 832 639 620 618 590 576 394 299 42 42 44 88 107 137 159 104 41 16 0 0 0 2 0 0
3271 3329 3382 3384 3390 3376 3548 3704 3822 3825 3894 3878 3878 3993 3988 3853 3802 3741 3626 3621 3542 3553 3612 3491 3507 3362 3406 3326 3262 3399 3518 3520 2959 2742 2653 2628 2548 2547 2492 2363 2267 2098 1990 1948 1925 1925 1922 2013 2160 2564 2726 2636 2362 2123 1970 1799 1605 1383 1231 1039 840 705 582 437 561 599 631 281 5 0 14 39 91 142 152 106 59 23 0 0 0 0 0 0 0
3342 3397 3386 3364 3495 3426 3524 3614 3818 3940 3966 4021 4030 4061 4100 4090 3901 3854 3754 3705 3643 3533 3466 3493 3463 3387 3319 3312 3368 3548 3536 3310 3063 2703 2744 2702 2554 2538 2538 2463 2347 2171 2099 2034 1994 2053 2136 2204 2570 2826 2786 2442 2144 1945 1739 1550 1363 1236 1110 960 798 687 531 502 494 505 323 32 37 11 10 25 81 108 73 42 0 2 1 0 0 0 0 0 0
3694 3459 3405 3435 3345 3303 3366 3397 3598 3755 3873 3916 4045 4172 4093 3988 3860 3832 3779 3644 3661 3619 3648 3514 3504 3501 3369 3374 3424 3474 3490 3381 2986 2738 2638 2627 2662 2572 2512 2501 2465 2327 2190 2164 2216 2277 2310 2526 2749 2808 2472 2271 2122 2100 1721 1159 1023 973 934 823 719 636 504 394 584 399 208 87 5 0 4 33 67 61 56 11 2 0 0 0 0 0 0 0 0
4302 3909 3552 3380 3406 3296 3248 3085 3173 3402 3680 3685 3747 3868 3914 3912 3795 3762 3831 3814 3795 3709 3585 3374 3440 3381 3354 3390 3524 3480 3361 3190 2970 2706 2688 2598 2615 2648 2527 2565 2430 2323 2272 2292 2316 2384 2512 2814 2936 2715 2498 2359 2252 2056 1311 898 816 788 717 679 599 495 326 518 362 221 305 349 80 19 26 22 56 62 46 29 0 0 0 0 0 0 0 0 0
4162 4323 4297 4067 4074 3613 3473 3258 3182 3119 3061 2996 3148 3292 3528 3592 3705 3792 3728 3719 3754 3761 3730 3594 3431 3310 3431 3425 3398 3377 3324 2965 2785 2649 2610 2655 2688 2664 2565 2592 2506 2364 2342 2365 2360 2456 2707 3102 2970 2560 2414 2290 2137 1608 1265 740 545 424 366 197 264 324 308 190 126 250 352 261 109 40 17 33 52 66 52 6 0 0 0 0 0 0 0 0 0
2894 3287 3494 3616 3712 3661 3716 3741 3908 3707 3528 3498 3459 3392 3642 3228 3379 3722 3959 4088 4007 3818 3919 3751 3541 3873 3722 3643 3460 3495 3284 2870 2708 2717 2574 2598 2615 2680 2680 2459 2431 2322 2337 2371 2443 2557 2847 3012 2535 2407 2284 2146 1774 1640 850 508 360 284 55 4 70 22 5 218 193 214 332 163 87 38 22 50 82 63 1 0 0 0 0 0 0 0 0 0 0
2215 2348 2509 2636 2956 3190 3477 3604 3756 3734 3785 3784 3798 3752 3564 3478 3406 3338 3282 3192 3196 3216 3191 3264 3518 3636 3792 3531 3359 3593 3394 3128 2713 2586 2610 2605 2643 2621 2520 2322 2317 2397 2379 2398 2476 2636 2909 2699 2332 2254 2052 1764 1830 693 486 233 330 0 0 0 0 0 222 210 63 9 136 72 80 26 40 45 45 14 0 0 0 0 0 0 1 0 0 0 0
1306 1529 1530 1462 1386 1774 1734 1763 1778 1988 2234 2482 2840 3100 3308 3332 3332 3249 3370 3321 3118 3043 2942 2979 2909 3035 3032 3169 3280 2709 2844 2842 2786 2823 2776 2696 2542 2581 2488 2362 2233 2282 2368 2480 2538 2645 2288 2058 2350 2084 1946 1588 611 514 340 160 0 0 0 1 1 0 153 127 16 0 1 12 21 9 3 28 12 0 0 0 0 0 0 0 0 0 0 0 0
1015 1082 1072 990 1063 1284 1493 1442 1308 1027 990 1045 1046 1182 1067 1154 1314 506 344 322 292 199 464 990 1647 2524 2777 2691 2809 2818 2633 2654 2701 2781 2802 2735 2736 2583 2545 2294 2332 2430 2448 2402 2421 2286 1647 1465 1587 1617 1338 638 426 379 358 290 146 374 381 22 0 22 1 0 1 0 0 2 0 10 22 0 0 0 0 0 0 0 0 0 0 0 0 0 0
975 936 888 828 917 1042 1231 1211 1084 1021 831 889 804 823 759 793 767 808 678 37 0 0 0 0 0 0 500 1492 2372 2614 2649 2665 2654 2666 2783 2744 2725 2624 2577 2227 2309 2243 2041 1958 1822 1757 1277 1522 1229 843 622 429 337 369 410 361 167 216 0 0 0 0 0 0 0 0 0 11 18 0 0 0 0 0 0 0 0 0 0 0 0 0 0 0 0
1008 869 774 706 759 928 1034 1074 1045 988 1032 1022 899 904 754 634 519 406 340 353 222 14 0 0 0 0 0 0 253 1515 2272 2592 2622 2669 2592 2714 2552 2383 2139 2125 2107 1990 1902 1936 1660 1226 1197 1004 674 488 370 317 330 45 0 0 0 0 0 0 0 0 0 2 0 0 3 0 0 0 0 0 0 0 0 0 0 0 2 0 0 0 0 0 0
889 726 503 482 504 534 646 737 768 861 1022 1036 991 812 600 466 437 343 297 230 84 0 0 0 0 0 0 0 0 0 828 1706 2261 2482 2464 2483 2532 2087 1985 1581 1782 1990 1860 1308 961 800 794 700 567 475 328 316 0 0 0 0 0 0 0 0 0 0 0 0 0 0 0 0 0 0 0 0 0 0 0 0 0 0 0 0 0 0 0 0 0
821 674 487 369 393 389 354 339 340 374 483 621 719 658 572 527 424 313 269 263 65 0 0 0 4 0 0 0 0 0 30 390 1385 2142 2380 2228 1873 1744 1803 1555 1078 1232 923 803 709 589 575 510 439 0 119 0 0 0 0 0 0 0 0 0 0 0 0 0 0 0 0 0 0 0 0 0 0 0 0 0 0 0 0 0 0 0 0 0 0
819 701 570 409 362 368 350 309 176 36 26 252 480 718 623 530 338 391 314 103 0 0 0 0 0 0 294 251 180 0 0 0 482 1575 2090 1633 1538 1407 1499 1224 880 875 939 610 463 442 321 246 0 140 218 156 0 0 0 0 0 0 0 0 0 0 0 0 0 0 0 0 0 0 0 0 0 0 0 0 0 0 0 0 0 0 0 0 0
958 916 903 837 771 587 528 475 192 100 212 233 336 397 476 530 366 119 120 72 4 7 0 0 0 12 10 192 74 66 1 2 348 1035 1053 939 910 1125 1018 949 449 465 469 434 356 212 209 232 240 252 12 0 0 0 0 0 0 0 0 0 0 0 0 0 0 0 0 0 0 0 0 0 0 0 0 0 0 0 0 0 0 0 0 0 0
803 968 993 995 936 892 786 635 502 368 255 217 178 116 111 218 292 146 33 33 8 0 0 0 0 0 0 6 45 73 97 452 654 671 870 514 529 488 314 250 193 217 298 353 316 294 249 236 223 227 187 126 40 22 0 0 0 0 0 0 0 0 0 0 0 0 0 0 0 0 0 0 0 0 0 0 0 0 0 0 0 0 0 0 0
764 716 825 932 981 926 867 784 624 482 249 142 100 38 46 32 45 21 28 0 0 0 0 0 4 30 47 16 74 35 10 68 8 11 88 74 102 68 95 86 77 104 245 265 260 242 223 168 73 19 0 0 0 0 0 0 0 0 0 0 0 0 0 0 0 0 0 0 0 0 0 0 0 0 0 0 0 0 0 0 0 0 0 0 0
1056 839 661 850 963 854 730 656 610 502 387 16 1 2 0 0 0 0 0 0 0 0 0 0 0 0 9 28 77 101 126 101 81 125 141 130 118 144 133 150 180 208 204 212 175 72 6 1 0 0 0 0 0 0 0 0 0 0 0 0 0 0 0 0 0 0 0 0 0 0 0 0 0 0 0 0 0 0 0 0 0 0 0 0 0
871 980 957 825 692 629 426 413 448 437 195 54 2 1 0 0 119 262 0 0 0 0 0 0 0 0 0 64 83 68 105 153 162 125 115 165 205 223 244 251 256 207 159 62 9 0 0 0 0 0 0 0 0 0 0 0 0 0 0 0 0 0 0 0 0 0 0 0 0 0 0 0 0 0 0 0 0 0 0 0 0 0 0 0 0
790 910 914 651 720 529 535 432 544 583 575 319 195 164 164 188 277 354 347 165 0 0 35 202 231 190 126 5 75 94 85 86 167 184 161 158 194 234 237 293 248 192 92 32 19 15 10 5 5 0 0 0 0 0 0 0 0 0 0 0 0 0 0 0 0 0 0 0 0 0 0 0 0 0 0 0 0 0 0 0 0 0 0 0 0
867 945 851 759 756 785 600 608 515 495 411 316 278 217 178 202 227 268 276 349 370 243 106 63 154 268 284 165 181 191 164 148 146 172 210 180 160 210 308 284 264 194 102 38 25 20 12 0 6 5 0 0 0 0 0 0 0 0 0 0 0 0 0 0 0 0 0 0 0 0 0 0 0 0 0 0 0 0 0 0 0 0 0 0 0
774 725 646 643 595 781 710 615 465 407 254 286 334 220 94 49 167 223 202 240 219 313 307 208 181 144 124 74 88 127 134 136 139 172 212 259 267 256 302 295 200 124 108 79 60 45 0 4 16 12 0 0 0 0 0 0 0 0 0 0 0 0 0 0 0 0 0 0 0 0 0 0 0 0 0 0 0 0 0 0 0 0 0 0 0
414 409 358 385 451 535 584 657 590 631 612 544 504 524 342 159 26 84 236 181 177 231 196 134 146 154 164 68 49 69 91 100 102 114 142 182 173 159 195 160 132 134 113 51 35 36 46 30 27 11 29 0 0 0 0 0 0 0 0 0 0 0 0 0 0 0 0 0 0 0 0 0 0 0 0 0 0 0 0 0 0 0 0 0 0
236 157 95 125 188 221 259 297 391 419 556 474 249 210 278 175 56 72 47 124 230 176 94 146 180 158 115 80 68 61 68 112 122 131 151 180 178 165 158 82 117 83 37 39 42 41 1 34 1 1 0 0 0 0 0 0 0 0 0 0 0 0 0 0 0 0 0 0 0 0 0 0 0 0 0 0 0 0 0 0 0 0 0 0 0
42 48 46 43 39 47 53 79 80 114 216 146 142 56 80 81 92 118 80 92 131 202 107 93 126 167 120 55 70 76 77 96 105 97 103 98 20 46 0 16 4 9 0 14 14 0 0 0 0 0 0 0 0 0 0 0 0 0 0 0 0 0 0 0 0 0 0 0 0 0 0 0 0 0 0 0 0 0 0 0 0 0 0 0 0
26 29 20 14 12 14 22 33 45 49 46 59 69 55 44 42 59 84 85 80 96 85 161 128 92 144 172 95 14 72 42 70 75 60 59 52 0 0 0 0 0 0 0 0 0 0 0 0 0 0 0 0 0 0 0 0 0 0 0 0 0 0 0 0 0 0 0 0 0 0 0 0 0 0 0 0 0 0 0 0 0 0 0 0 0
6 6 7 6 7 6 7 14 12 16 22 28 28 37 40 54 59 53 77 108 119 86 103 156 118 122 141 84 113 95 75 82 75 67 73 35 0 0 0 0 0 0 0 0 0 0 0 0 0 0 0 0 0 0 0 0 0 0 0 0 0 0 0 0 0 0 0 0 0 0 0 0 0 0 0 0 0 0 0 0 0 0 0 0 0
0 0 0 2 3 4 5 4 4 5 6 8 8 7 11 45 38 27 38 76 103 120 78 108 177 134 154 78 131 160 156 137 98 88 0 0 0 0 0 0 0 0 0 0 0 0 0 0 0 0 0 0 0 0 0 0 0 0 0 0 0 0 0 0 0 0 0 0 0 0 0 0 0 0 0 0 0 0 0 0 0 0 0 0 0
Wind_Speed
15 14 14 13 15 17 18 19 17 17 16 15 14 13 14 14 14 15 16 16 16 16 16 17 18 18 16 14 13 13 11 11 13 11 10 12 11 11 13 14 14 14 15 17 16 16 16 16 15 15 13 13 11 11 10 9 9 8 9 10 11 11 12 13 12 10 11 14 14 15 18 18 18 19 21 24 26 27 26 26 27 27 27 27 28
15 15 14 13 14 16 17 18 19 18 17 16 15 15 15 16 16 17 16 17 17 17 17 18 19 19 16 13 13 14 13 11 14 15 12 12 11 10 12 14 14 15 16 17 18 16 16 15 15 14 13 13 11 11 10 10 10 10 10 11 12 13 13 12 12 11 9 15 17 17 17 18 17 20 21 22 24 26 25 26 27 27 27 27 26
17 17 15 14 15 16 17 18 19 19 18 17 16 16 16 17 18 18 16 16 17 17 18 20 21 20 16 13 14 15 14 12 14 15 14 14 13 13 13 15 16 16 17 18 18 18 18 16 15 15 13 13 12 12 12 13 12 13 13 13 13 14 15 15 14 13 13 15 18 18 18 19 18 20 22 22 23 24 23 24 25 28 27 27 27
18 18 15 14 15 17 18 18 19 18 17 17 16 16 17 17 19 18 18 18 18 19 20 21 21 20 16 13 14 15 14 13 14 15 15 14 14 15 15 16 16 17 18 18 19 19 19 19 17 17 17 16 15 15 15 16 16 16 17 16 16 16 17 18 18 17 17 17 21 20 19 18 19 19 21 23 23 24 24 24 26 27 27 27 27
19 18 16 14 15 16 18 18 18 17 16 16 16 17 17 18 19 19 20 19 19 21 21 21 20 18 15 13 13 15 14 14 14 15 15 15 15 15 17 17 17 18 18 19 19 20 21 21 22 23 23 22 21 19 19 20 19 19 20 20 20 20 20 21 21 22 22 22 21 23 21 19 17 18 20 22 24 24 24 24 25 27 28 25 25
19 19 17 15 14 16 17 17 16 16 15 14 15 16 17 18 18 20 20 20 20 20 21 21 19 16 13 12 13 15 15 15 15 16 16 16 16 16 17 18 18 18 19 20 20 21 23 24 26 30 32 31 27 24 23 23 22 22 23 23 23 23 23 24 24 24 25 25 25 25 27 22 20 20 22 23 23 24 24 25 27 29 29 26 25
21 20 18 15 14 15 16 16 14 14 14 14 14 15 15 16 16 17 20 19 19 19 18 18 17 14 12 12 13 15 16 15 16 17 18 18 17 17 18 19 18 18 19 21 22 23 25 27 31 36 38 37 33 31 30 28 26 27 27 25 24 24 25 25 26 26 27 27 27 27 26 26 24 22 26 27 25 24 23 23 25 29 31 28 27
21 20 18 14 13 15 15 14 13 13 13 14 14 14 14 14 14 15 16 17 16 16 15 15 14 13 12 12 14 16 17 16 16 18 19 19 19 18 19 19 20 19 20 22 24 25 28 30 34 37 40 41 38 34 33 31 30 31 30 26 25 26 26 26 28 28 28 29 28 28 29 28 29 28 29 31 29 28 27 25 24 27 29 31 31
19 18 16 13 12 14 13 12 12 12 13 13 12 12 11 11 11 12 12 13 13 13 12 12 12 13 13 12 14 16 17 16 17 19 20 21 20 19 20 20 21 21 22 23 24 26 28 30 33 36 40 44 44 34 32 33 31 31 30 28 27 29 28 27 28 29 29 30 30 30 30 30 31 32 33 33 32 28 29 28 25 27 28 29 33
19 17 15 12 12 14 14 12 11 12 12 12 12 12 12 12 13 14 14 14 13 13 12 12 12 13 14 14 14 16 16 16 18 22 22 23 23 22 22 22 22 23 24 24 25 27 28 29 31 38 42 46 43 36 32 32 30 30 30 31 31 32 31 30 30 30 30 31 31 32 32 31 32 34 33 33 33 33 31 30 26 25 26 27 30
18 16 11 11 13 15 14 11 11 11 11 11 12 14 15 14 15 15 15 16 16 14 14 13 12 13 14 14 14 14 14 16 20 24 23 24 26 25 25 24 24 24 25 25 24 26 26 28 29 36 39 39 37 35 30 nan nan nan 34 37 35 34 33 32 32 32 32 31 31 32 32 31 32 33 34 33 35 34 32 31 29 28 28 29 29
16 13 10 14 16 15 14 13 12 11 12 13 14 16 16 17 17 18 17 18 17 16 15 15 13 13 13 14 14 12 13 16 23 25 25 26 27 27 26 26 26 25 25 24 24 25 26 27 28 30 33 34 32 32 32 31 32 32 nan nan nan 35 33 33 33 33 34 32 32 33 33 34 33 35 35 36 37 35 34 32 31 30 29 32 33
14 11 12 16 15 15 15 14 13 12 13 15 15 16 17 18 19 20 20 19 18 17 17 17 16 15 14 14 14 13 12 19 25 27 27 29 30 28 26 27 28 27 26 26 26 27 26 25 25 27 30 36 32 32 32 32 33 35 35 34 33 nan nan nan 32 33 34 35 34 33 35 35 35 36 40 40 38 35 34 34 33 32 31 32 32
14 12 15 16 15 15 15 14 13 13 14 15 17 17 18 19 19 19 19 20 20 19 19 19 17 17 16 15 15 13 12 20 27 29 29 32 33 31 28 29 29 28 29 29 28 28 27 25 24 26 31 34 33 33 33 33 33 33 33 33 32 33 33 nan nan nan 33 33 34 34 35 38 37 39 41 40 40 37 37 34 35 33 32 30 30
13 14 16 16 16 16 15 14 13 15 16 17 18 18 19 18 19 19 20 22 22 21 21 21 19 18 18 18 17 15 13 23 29 30 31 34 35 34 30 30 30 30 31 30 30 29 28 25 25 27 32 35 35 37 35 35 34 34 36 37 36 35 35 35 36 36 37 35 34 35 36 41 39 40 41 41 41 41 39 36 35 34 33 32 34
14 18 18 17 16 15 16 15 16 17 18 19 19 20 21 21 22 23 22 22 22 21 20 22 22 21 20 19 18 17 16 26 29 31 33 36 39 35 33 31 31 32 32 32 31 30 29 27 26 29 32 35 38 42 38 37 37 37 38 37 37 37 37 38 41 41 40 38 37 37 39 41 41 41 42 42 43 43 43 nan nan nan 38 35 36
17 19 18 16 15 16 16 16 17 19 20 21 21 21 22 23 24 25 23 22 22 21 21 23 23 22 23 21 21 19 16 28 33 34 35 39 39 34 35 32 30 33 33 33 32 32 31 29 28 30 33 34 40 44 42 41 37 39 38 39 39 39 39 41 45 46 nan nan 39 40 42 44 44 44 45 46 44 45 44 nan nan 42 40 38 nan
19 21 20 19 19 20 19 19 20 21 22 21 21 21 22 24 25 27 25 23 21 20 22 22 22 22 24 21 23 23 20 29 38 39 39 41 39 36 36 36 32 32 31 33 34 33 32 32 31 31 33 35 44 46 45 43 40 40 40 40 41 41 41 43 44 45 nan nan nan nan 44 45 45 44 46 47 47 46 46 nan 43 42 41 nan nan
22 23 25 26 27 24 22 21 20 21 21 21 22 22 23 25 27 29 26 26 24 24 25 23 23 24 26 23 26 25 21 29 40 42 43 44 39 37 38 36 33 33 33 33 35 35 33 32 33 32 34 37 46 47 47 45 42 41 42 41 41 42 43 45 46 48 48 46 nan 43 43 44 44 43 44 47 47 46 nan 44 43 nan nan nan nan
24 27 32 31 29 28 26 24 23 22 21 23 24 24 26 28 30 30 30 30 29 29 27 26 26 27 26 26 27 29 26 30 40 44 47 47 45 41 40 39 34 34 35 35 36 34 31 30 33 35 37 41 46 47 47 47 43 43 43 42 42 43 44 47 50 49 51 49 47 46 45 nan nan nan nan 45 45 46 nan nan nan nan nan nan nan
27 29 32 31 31 31 30 29 27 25 25 27 30 31 32 31 32 32 31 32 31 31 32 30 29 31 30 29 27 26 28 28 40 46 49 50 49 46 41 41 36 36 37 38 39 36 34 32 30 37 40 43 46 48 48 47 45 43 44 43 43 43 47 49 52 53 51 50 48 47 nan nan nan nan nan 46 46 47 nan nan nan nan nan nan nan
30 31 31 30 31 31 29 28 28 27 28 30 32 32 33 35 36 34 34 33 32 31 32 31 33 30 29 31 30 29 30 31 36 45 48 50 51 48 45 43 43 40 39 40 39 37 35 34 32 37 43 45 47 49 49 48 46 43 43 43 44 53 51 48 50 50 49 48 48 47 nan nan nan nan nan 45 46 46 nan nan nan nan nan nan nan
34 33 32 31 31 29 28 27 28 28 29 30 28 27 31 33 34 35 35 35 35 34 32 32 33 31 30 28 33 33 32 36 41 48 49 53 51 46 44 44 47 46 44 42 41 41 37 37 36 42 46 48 49 50 50 49 47 43 43 44 50 55 51 46 47 50 49 49 48 nan nan nan nan 46 46 46 45 nan nan nan nan nan nan nan nan
33 32 31 30 29 29 28 28 29 29 29 30 29 29 30 32 34 35 35 35 35 36 35 37 37 33 32 31 31 32 32 37 45 51 52 55 55 51 45 45 49 44 45 46 48 48 44 42 44 52 50 51 51 51 50 51 48 46 44 47 52 51 47 46 48 48 50 49 nan nan nan nan nan 46 46 46 nan nan nan nan nan nan nan nan nan
31 30 30 30 31 31 32 32 32 32 31 32 32 33 34 36 36 37 37 38 38 36 35 37 39 39 38 39 35 37 36 39 40 52 57 57 58 56 51 47 47 45 44 45 48 51 50 53 57 57 54 53 54 53 51 50 49 50 51 51 50 46 45 45 48 50 49 nan nan nan nan nan nan 46 nan nan nan nan nan nan nan nan nan nan nan
35 34 34 34 35 36 36 35 35 35 35 35 36 37 39 38 39 40 41 41 40 39 38 39 40 41 43 43 41 41 43 44 46 56 57 59 58 59 59 54 50 47 44 45 44 50 57 60 63 62 58 55 57 56 51 50 52 55 54 50 45 44 45 47 49 50 49 nan nan nan nan nan nan nan nan nan nan nan nan nan nan nan nan nan nan
43 42 41 41 41 40 39 38 38 38 37 38 38 38 39 39 39 39 41 41 42 41 39 42 43 43 44 44 46 47 49 50 49 57 59 58 57 57 59 56 53 52 51 52 53 55 59 62 62 62 59 60 63 61 56 58 58 56 53 48 45 44 45 48 50 49 47 46 nan nan nan nan nan nan nan nan nan nan nan nan nan nan nan nan nan
49 49 48 47 45 44 43 45 42 39 40 39 39 39 39 39 39 39 40 41 43 43 44 45 45 45 45 45 47 50 49 52 56 59 58 60 61 62 62 62 60 59 58 59 58 59 59 63 68 66 65 66 66 61 57 57 56 56 54 51 46 44 46 49 48 45 45 44 43 nan nan nan nan nan nan nan nan nan nan nan nan nan nan nan nan
57 56 54 52 51 49 47 46 44 42 41 41 42 44 45 44 43 43 42 46 48 47 47 49 49 49 50 48 46 49 52 52 52 56 59 63 66 68 66 64 65 62 61 65 64 65 67 68 67 67 68 69 64 58 55 56 55 55 nan nan nan nan nan 46 46 45 45 44 nan nan nan nan nan nan nan nan nan nan nan nan nan nan nan nan nan
55 51 48 48 47 47 47 47 48 49 50 50 51 51 55 56 55 53 52 49 47 46 53 52 51 52 52 51 51 51 50 51 50 65 68 71 72 75 71 65 63 66 70 69 66 67 69 69 67 67 71 70 63 57 54 54 55 nan nan nan nan nan 44 44 nan nan 44 nan nan nan nan nan nan nan nan nan nan nan nan nan nan nan nan nan nan
50 48 48 48 48 49 50 51 52 53 53 54 54 55 53 54 56 54 50 49 48 47 45 45 43 44 50 51 51 49 45 50 65 72 73 73 69 69 71 69 69 72 77 73 68 68 70 70 69 69 72 71 66 60 58 57 nan nan nan nan nan nan 42 43 nan nan nan nan nan nan nan nan nan nan nan nan nan nan nan nan nan nan nan nan nan
51 51 52 52 52 53 54 55 56 57 56 55 55 55 56 54 54 54 52 50 49 48 47 46 44 44 43 49 53 56 59 69 73 74 74 71 65 65 71 77 77 79 77 77 74 74 71 68 66 67 70 69 66 65 63 60 60 62 60 nan nan nan nan nan nan nan nan nan nan nan nan nan nan nan nan nan nan nan nan nan nan nan nan nan nan
55 55 56 56 56 56 56 56 57 57 57 55 55 55 55 55 55 55 54 nan nan nan nan nan nan nan 45 46 50 56 66 77 81 78 74 68 64 71 83 87 85 85 84 76 72 71 69 63 61 63 63 59 58 59 60 60 61 61 nan nan nan nan nan nan nan nan nan nan nan nan nan nan nan nan nan nan nan nan nan nan nan nan nan nan nan
59 57 58 59 58 57 56 55 56 56 55 54 55 55 56 56 57 57 56 57 57 nan nan nan nan nan nan nan 53 53 70 85 86 83 77 72 79 89 89 86 86 85 81 76 71 67 64 62 62 65 64 57 53 nan nan nan nan nan nan nan nan nan nan nan nan nan nan nan nan nan nan nan nan nan nan nan nan nan nan nan nan nan nan nan nan
60 63 65 61 59 59 58 57 57 56 54 53 53 55 56 57 57 58 57 57 nan nan nan nan nan nan nan nan nan nan 73 86 90 84 82 89 93 94 96 89 81 71 69 66 65 63 61 60 61 63 60 53 nan nan nan nan nan nan nan nan nan nan nan nan nan nan nan nan nan nan nan nan nan nan nan nan nan nan nan nan nan nan nan nan nan
61 60 60 61 61 60 59 58 57 55 52 51 51 53 52 53 56 59 58 56 nan nan nan nan nan nan nan nan nan nan nan 87 97 100 100 99 96 97 88 85 81 72 67 63 61 61 59 56 55 nan 50 nan nan nan nan nan nan nan nan nan nan nan nan nan nan nan nan nan nan nan nan nan nan nan nan nan nan nan nan nan nan nan nan nan nan
60 59 58 58 59 59 58 57 56 nan nan 49 48 49 50 51 53 57 60 62 nan nan nan nan nan nan 72 72 66 nan nan nan 89 97 95 92 90 83 79 80 83 83 77 69 62 59 59 58 nan 54 47 45 nan nan nan nan nan nan nan nan nan nan nan nan nan nan nan nan nan nan nan nan nan nan nan nan nan nan nan nan nan nan nan nan nan
59 57 56 56 56 56 56 56 55 nan 51 48 47 47 48 50 53 57 59 nan nan nan nan nan nan nan nan 55 nan nan nan nan 59 62 72 80 81 78 77 80 82 81 76 70 66 65 64 60 54 51 nan nan nan nan nan nan nan nan nan nan nan nan nan nan nan nan nan nan nan nan nan nan nan nan nan nan nan nan nan nan nan nan nan nan nan
58 58 56 55 56 55 54 54 53 52 50 48 48 48 49 50 54 56 nan nan nan nan nan nan nan nan nan nan nan nan nan 40 27 40 56 66 69 69 72 79 79 75 72 70 67 62 56 49 44 46 48 51 nan nan nan nan nan nan nan nan nan nan nan nan nan nan nan nan nan nan nan nan nan nan nan nan nan nan nan nan nan nan nan nan nan
54 54 53 50 53 53 53 53 53 52 50 49 nan nan nan nan nan nan nan nan nan nan nan nan nan nan nan nan nan nan nan nan nan nan nan nan 61 nan nan nan nan 59 59 60 56 49 45 42 nan nan nan nan nan nan nan nan nan nan nan nan nan nan nan nan nan nan nan nan nan nan nan nan nan nan nan nan nan nan nan nan nan nan nan nan nan
54 54 54 53 51 51 51 51 52 51 50 nan nan nan nan nan nan nan nan nan nan nan nan nan nan nan nan nan nan 44 40 31 nan 27 30 40 47 51 55 56 52 46 44 46 47 nan nan nan nan nan nan nan nan nan nan nan nan nan nan nan nan nan nan nan nan nan nan nan nan nan nan nan nan nan nan nan nan nan nan nan nan nan nan nan nan
55 55 54 53 52 51 50 49 49 49 49 nan nan nan nan nan 52 53 nan nan nan nan nan nan nan nan nan nan nan nan 26 21 20 23 27 31 35 38 41 45 44 43 44 nan nan nan nan nan nan nan nan nan nan nan nan nan nan nan nan nan nan nan nan nan nan nan nan nan nan nan nan nan nan nan nan nan nan nan nan nan nan nan nan nan nan
56 55 54 52 52 51 50 49 48 49 49 49 50 49 50 50 51 52 51 50 nan nan nan 42 38 37 36 nan nan nan nan nan 21 21 20 23 25 29 32 33 33 36 nan nan nan nan nan nan nan nan nan nan nan nan nan nan nan nan nan nan nan nan nan nan nan nan nan nan nan nan nan nan nan nan nan nan nan nan nan nan nan nan nan nan nan
55 54 53 52 51 51 51 50 51 51 51 52 52 52 52 51 50 50 50 48 49 50 46 nan 37 35 32 29 26 24 23 23 23 23 22 21 20 21 22 23 25 28 31 nan nan nan nan nan nan nan nan nan nan nan nan nan nan nan nan nan nan nan nan nan nan nan nan nan nan nan nan nan nan nan nan nan nan nan nan nan nan nan nan nan nan
55 55 54 52 52 52 52 51 51 51 51 51 51 52 nan nan 51 50 48 47 48 46 43 39 35 34 31 nan nan 26 25 25 25 25 24 24 23 22 21 22 23 25 28 nan nan nan nan nan nan nan nan nan nan nan nan nan nan nan nan nan nan nan nan nan nan nan nan nan nan nan nan nan nan nan nan nan nan nan nan nan nan nan nan nan nan
54 55 55 54 54 53 52 51 50 49 48 48 48 49 50 50 nan nan 48 47 45 43 41 36 34 33 33 nan nan nan nan 28 27 26 25 25 25 25 25 26 28 29 31 nan nan nan nan nan nan nan nan nan nan nan nan nan nan nan nan nan nan nan nan nan nan nan nan nan nan nan nan nan nan nan nan nan nan nan nan nan nan nan nan nan nan
52 53 nan 53 52 51 50 48 47 45 44 45 45 46 46 48 nan nan nan 45 42 41 nan 37 34 32 32 nan nan nan nan 31 30 30 29 28 27 27 27 nan 32 nan nan nan nan nan nan nan nan nan nan nan nan nan nan nan nan nan nan nan nan nan nan nan nan nan nan nan nan nan nan nan nan nan nan nan nan nan nan nan nan nan nan nan nan
nan nan nan nan nan nan nan nan nan 43 42 43 43 nan nan nan nan 45 nan nan 40 38 37 nan 35 33 31 nan nan nan nan nan 32 nan 32 nan nan nan nan nan nan nan nan nan nan nan nan nan nan nan nan nan nan nan nan nan nan nan nan nan nan nan nan nan nan nan nan nan nan nan nan nan nan nan nan nan nan nan nan nan nan nan nan nan nan
nan nan nan nan nan nan nan nan nan nan nan nan nan nan nan nan nan nan nan nan nan nan 35 34 nan 32 29 nan nan nan nan nan nan nan nan nan nan nan nan nan nan nan nan nan nan nan nan nan nan nan nan nan nan nan nan nan nan nan nan nan nan nan nan nan nan nan nan nan nan nan nan nan nan nan nan nan nan nan nan nan nan nan nan nan nan
nan nan nan nan nan nan nan nan nan nan nan nan nan nan nan nan nan nan nan 40 39 nan 37 33 29 29 29 nan 26 nan nan nan nan nan nan nan nan nan nan nan nan nan nan nan nan nan nan nan nan nan nan nan nan nan nan nan nan nan nan nan nan nan nan nan nan nan nan nan nan nan nan nan nan nan nan nan nan nan nan nan nan nan nan nan nan
nan nan nan nan nan nan nan nan nan nan nan nan nan nan nan nan nan nan nan nan 35 36 nan 34 30 29 30 nan 20 24 27 29 nan nan nan nan nan nan nan nan nan nan nan nan nan nan nan nan nan nan nan nan nan nan nan nan nan nan nan nan nan nan nan nan nan nan nan nan nan nan nan nan nan nan nan nan nan nan nan nan nan nan nan nan nan
Wind_Direction
298 296 290 293 295 297 296 292 291 282 280 279 278 277 277 280 281 281 276 285 287 293 298 304 309 310 309 301 301 293 292 294 295 302 319 317 320 328 331 337 347 353 356 0 1 358 4 9 11 13 13 20 20 20 16 5 1 0 354 353 355 349 349 349 355 357 333 318 317 319 319 322 323 318 318 317 317 317 318 316 312 310 307 305 302
299 296 291 291 305 301 300 292 289 284 287 283 284 280 279 279 280 278 283 285 287 294 299 299 304 308 306 299 294 290 287 295 292 293 306 311 331 331 335 334 343 353 355 360 357 354 355 0 4 2 3 16 13 11 8 0 354 354 348 351 349 343 341 343 345 344 343 318 319 320 321 320 323 318 316 316 315 312 314 312 310 309 306 303 301
301 290 289 293 306 299 296 293 292 294 294 286 288 289 284 283 282 286 288 286 287 293 296 301 303 306 301 293 289 284 286 289 284 287 292 304 314 317 321 331 340 349 354 357 354 349 348 349 352 348 345 358 0 1 358 354 350 352 355 352 352 346 337 340 338 338 338 328 318 320 323 324 326 319 316 313 308 307 308 310 308 306 304 302 300
293 287 288 299 304 300 301 300 304 303 300 289 289 289 283 282 284 288 290 287 289 292 296 299 302 302 299 291 285 279 279 278 280 283 290 299 305 309 315 326 336 345 350 351 348 344 345 344 346 342 338 346 348 348 346 344 344 344 351 349 349 348 338 337 340 337 332 332 324 322 319 323 322 317 312 310 312 311 310 307 305 303 301 301 300
292 292 297 306 308 309 316 312 312 313 309 295 297 292 288 283 281 289 289 291 292 290 293 298 301 300 296 291 279 274 275 278 280 281 282 290 301 304 311 320 331 340 345 344 340 339 339 343 342 341 341 345 343 343 339 343 342 342 347 346 345 343 338 335 336 334 334 334 329 323 319 319 315 312 313 316 315 314 312 310 306 301 301 299 297
292 291 293 302 309 322 322 322 326 324 316 306 302 296 292 289 287 287 293 296 295 296 297 297 299 303 297 286 273 270 273 278 282 282 284 289 294 300 305 316 325 333 339 338 336 337 338 342 344 346 347 345 341 335 332 336 333 336 341 343 341 338 337 335 332 332 334 334 332 328 323 323 320 318 318 320 318 315 313 311 306 302 301 298 294
284 286 294 305 310 324 326 330 328 322 311 304 294 294 297 299 299 297 296 302 304 305 306 305 300 302 297 281 271 271 276 281 282 282 281 286 293 298 303 311 317 324 331 333 334 339 341 344 349 349 347 342 339 332 328 328 328 335 334 337 339 338 335 333 329 330 331 331 331 330 326 322 319 318 317 319 320 317 312 306 303 299 299 295 292
277 279 290 300 311 325 329 332 326 320 311 305 306 308 309 309 309 304 302 314 321 322 320 314 307 304 301 286 274 273 281 286 288 286 282 284 288 293 298 305 312 316 322 326 332 340 345 348 351 348 345 343 340 333 329 328 328 334 335 335 337 336 334 330 328 327 327 327 326 327 325 321 316 315 317 320 324 323 319 312 305 299 297 296 297
281 286 288 301 312 313 309 313 316 318 321 321 327 332 333 330 327 327 326 329 327 335 331 324 318 315 310 298 285 281 289 297 293 288 284 285 286 291 295 301 306 308 314 323 331 339 344 347 348 346 347 351 352 346 344 341 332 335 339 341 339 335 332 329 326 325 325 324 323 323 322 319 317 317 322 326 327 325 313 308 303 299 295 296 299
278 280 288 303 300 291 291 298 315 325 330 342 349 354 359 3 5 2 356 349 342 330 328 325 324 316 311 308 295 285 291 295 303 304 290 280 284 283 286 294 302 303 309 320 331 337 341 342 344 348 353 359 0 1 0 357 349 345 343 339 338 334 331 329 326 325 325 325 325 323 321 319 318 320 324 326 324 321 316 310 306 299 296 294 296
281 287 304 308 288 280 284 303 311 328 340 348 353 358 1 2 8 10 8 4 358 345 338 338 327 313 314 311 306 294 294 298 313 303 300 291 281 282 284 288 295 300 307 318 327 331 335 341 343 349 354 358 359 358 354 nan nan nan 351 343 337 332 330 329 327 325 324 325 325 324 322 320 320 321 324 325 324 322 316 309 305 303 302 297 294
286 289 303 281 277 285 292 298 310 326 331 342 344 346 348 353 359 2 1 359 352 354 357 351 337 327 313 315 316 307 300 306 309 308 302 295 286 280 281 284 290 297 305 316 319 323 331 336 343 344 345 349 347 347 347 347 354 357 nan nan nan 337 332 327 325 323 324 326 327 326 322 321 321 322 325 325 323 322 319 312 307 303 301 298 297
280 288 281 281 286 288 286 294 307 315 328 333 329 329 336 346 349 348 351 344 341 352 357 352 350 343 335 327 321 312 295 299 305 307 303 295 292 285 278 284 288 296 302 309 317 322 322 328 339 338 333 339 339 342 342 345 350 355 353 349 344 nan nan nan 329 324 322 327 329 330 326 322 324 325 323 323 323 324 320 317 311 305 299 295 294
269 274 272 277 283 283 284 292 305 315 315 315 314 320 329 338 339 336 332 329 340 354 349 345 343 347 346 337 319 310 304 294 302 304 301 295 292 289 278 284 288 294 299 305 312 318 319 323 332 329 325 330 335 337 337 341 342 343 343 342 341 339 335 nan nan nan 329 329 331 331 325 323 323 322 324 326 326 325 323 321 314 309 305 300 293
265 264 271 277 278 280 283 291 297 297 299 300 304 312 316 318 320 320 319 321 326 331 343 340 338 349 353 348 327 324 318 301 302 304 299 295 293 290 282 284 286 290 295 303 309 314 316 321 326 323 321 325 328 332 336 338 339 339 339 341 343 341 336 333 330 328 328 330 329 329 321 317 321 323 324 326 328 324 320 318 314 314 309 300 296
254 254 263 272 280 281 283 284 284 284 290 294 300 306 308 310 311 305 302 305 309 313 322 319 326 335 336 337 335 345 325 310 308 305 299 293 293 283 285 288 290 290 293 299 303 307 312 317 317 316 317 321 324 328 332 332 336 338 337 337 339 339 337 331 331 331 331 329 328 326 321 321 321 322 323 325 324 321 316 nan nan nan 311 308 303
260 261 265 270 272 273 273 276 278 282 284 289 296 302 304 303 297 289 292 293 297 310 312 308 305 310 311 326 332 326 325 310 311 307 300 297 288 283 286 289 293 291 291 294 299 304 308 312 314 311 314 318 317 324 329 330 332 333 333 334 334 334 333 329 325 328 nan nan 322 319 318 318 320 321 324 325 324 321 318 nan nan 319 317 313 nan
275 275 276 273 266 262 260 261 264 270 275 285 292 292 291 285 286 284 286 286 287 291 288 289 294 297 300 311 309 308 312 305 309 306 304 301 296 287 284 286 293 292 292 292 291 297 306 314 312 310 311 313 314 321 324 325 328 328 329 331 333 333 332 330 323 318 nan nan nan nan 321 320 322 322 322 324 324 322 321 nan 320 319 320 nan nan
280 279 272 263 261 261 260 261 266 272 275 278 277 278 279 280 279 277 279 279 280 276 276 278 282 284 285 292 291 297 300 298 303 303 304 303 296 284 283 286 293 292 292 292 290 290 295 303 312 311 309 309 312 318 320 322 323 325 327 328 330 332 331 330 330 327 322 322 nan 319 318 317 318 321 323 327 327 327 nan 321 320 nan nan nan nan
274 265 259 261 266 264 256 255 259 264 269 268 267 269 267 268 273 278 280 280 279 280 283 283 282 278 280 279 274 280 286 280 289 300 300 301 303 287 282 286 293 296 294 292 289 292 299 302 304 312 311 307 310 315 317 320 320 319 320 324 326 327 326 325 328 325 323 322 321 322 321 nan nan nan nan 324 324 327 nan nan nan nan nan nan nan
261 258 256 259 266 267 259 256 260 262 261 261 261 261 263 269 274 276 279 278 279 283 287 289 291 282 279 278 275 277 275 279 279 294 295 299 301 294 285 286 291 291 290 289 288 290 293 299 300 305 309 307 308 312 312 315 317 314 317 320 322 320 318 322 322 322 321 319 319 319 nan nan nan nan nan 320 322 323 nan nan nan nan nan nan nan
260 260 262 265 269 273 274 274 274 274 273 270 269 269 268 270 272 276 278 282 292 295 290 292 289 292 289 283 284 282 278 276 270 282 288 290 292 297 284 286 286 287 288 287 289 290 291 292 294 297 306 305 304 306 308 308 314 308 312 316 316 308 313 318 319 321 323 321 320 320 nan nan nan nan nan 319 321 322 nan nan nan nan nan nan nan
256 258 260 264 269 276 281 286 285 284 286 289 290 286 280 279 279 279 288 293 297 297 297 297 299 299 293 293 286 287 287 280 281 274 282 283 286 287 288 281 287 281 283 286 289 289 287 287 289 291 297 299 300 301 301 304 303 304 310 311 309 310 310 315 317 319 321 319 316 nan nan nan nan 316 317 320 322 nan nan nan nan nan nan nan nan
253 257 260 264 270 275 279 283 285 285 285 285 288 286 285 286 285 285 289 293 292 291 292 292 295 301 300 295 292 288 287 281 282 285 284 289 286 288 285 280 281 278 277 277 278 280 283 285 282 286 292 295 296 296 297 298 296 305 309 304 307 308 308 312 316 318 314 313 nan nan nan nan nan 316 319 322 nan nan nan nan nan nan nan nan nan
255 258 262 266 269 273 276 278 281 281 279 281 283 283 285 285 288 288 289 290 291 292 292 291 295 296 294 288 289 285 283 283 284 286 290 287 288 288 284 276 273 275 269 268 270 272 277 281 280 282 284 287 290 291 291 295 300 298 300 303 304 305 309 311 315 314 312 nan nan nan nan nan nan 316 nan nan nan nan nan nan nan nan nan nan nan
256 258 260 262 266 271 275 278 279 279 280 279 281 281 282 284 284 284 287 288 289 290 288 287 288 288 286 284 282 280 280 281 280 276 281 285 284 289 290 287 280 276 271 263 269 272 273 276 279 280 280 281 279 278 283 286 290 290 294 299 303 306 306 310 309 310 314 nan nan nan nan nan nan nan nan nan nan nan nan nan nan nan nan nan nan
259 260 261 263 265 268 272 274 275 276 277 277 277 277 278 280 282 284 285 286 285 284 285 283 282 283 284 283 279 278 277 278 276 271 275 277 276 280 283 284 287 281 271 262 263 264 270 271 270 275 274 279 278 278 279 280 283 286 288 294 300 302 304 306 306 310 312 311 nan nan nan nan nan nan nan nan nan nan nan nan nan nan nan nan nan
258 259 263 266 268 270 271 271 270 270 272 274 275 276 277 279 280 282 284 286 285 284 284 285 286 287 285 283 281 280 279 276 273 274 277 277 276 276 276 272 271 269 270 266 264 264 265 264 266 265 266 267 269 273 276 277 281 284 288 292 295 297 299 300 302 306 307 308 309 nan nan nan nan nan nan nan nan nan nan nan nan nan nan nan nan
259 260 261 261 261 262 263 264 266 268 270 272 272 270 269 270 271 274 277 277 278 281 284 285 285 284 283 282 281 279 278 279 281 284 285 285 280 276 272 270 266 265 266 265 262 261 261 263 263 265 265 266 268 273 275 275 279 283 nan nan nan nan nan 299 308 311 307 306 nan nan nan nan nan nan nan nan nan nan nan nan nan nan nan nan nan
260 260 260 261 263 265 266 267 267 266 265 265 265 265 267 268 269 270 268 266 268 270 272 277 277 278 281 282 283 281 279 278 283 280 278 276 279 280 280 282 281 275 270 271 266 263 264 263 262 264 264 264 267 272 275 276 278 nan nan nan nan nan 296 302 nan nan 306 nan nan nan nan nan nan nan nan nan nan nan nan nan nan nan nan nan nan
260 260 260 261 262 265 268 269 269 268 268 268 267 267 266 266 272 276 276 274 273 272 275 278 275 274 275 276 280 284 283 276 273 276 279 282 285 287 287 286 282 280 279 274 267 264 262 262 260 261 263 265 268 273 277 279 nan nan nan nan nan nan 297 302 nan nan nan nan nan nan nan nan nan nan nan nan nan nan nan nan nan nan nan nan nan
264 265 266 268 268 270 271 272 272 272 271 269 268 268 267 266 265 271 277 278 275 274 274 273 275 278 283 284 279 274 278 278 279 279 280 284 286 287 285 280 277 275 279 278 266 258 258 258 259 261 266 272 275 275 275 279 280 276 277 nan nan nan nan nan nan nan nan nan nan nan nan nan nan nan nan nan nan nan nan nan nan nan nan nan nan
264 266 268 269 270 270 270 270 270 270 270 269 269 270 269 268 269 268 266 nan nan nan nan nan nan nan 277 281 293 297 289 284 282 280 280 281 284 279 273 274 275 276 275 271 264 258 255 257 259 261 266 273 283 279 275 276 279 275 nan nan nan nan nan nan nan nan nan nan nan nan nan nan nan nan nan nan nan nan nan nan nan nan nan nan nan
264 267 268 268 268 268 269 270 270 270 269 268 269 269 268 268 267 265 265 264 263 nan nan nan nan nan nan nan 290 291 291 289 287 286 285 280 271 268 270 272 276 277 275 271 266 260 257 256 258 263 265 270 285 nan nan nan nan nan nan nan nan nan nan nan nan nan nan nan nan nan nan nan nan nan nan nan nan nan nan nan nan nan nan nan nan
266 267 266 267 267 268 269 270 270 268 267 267 268 267 267 267 267 266 266 265 nan nan nan nan nan nan nan nan nan nan 295 292 289 286 279 270 266 265 261 260 262 263 265 268 270 265 262 260 262 266 268 271 nan nan nan nan nan nan nan nan nan nan nan nan nan nan nan nan nan nan nan nan nan nan nan nan nan nan nan nan nan nan nan nan nan
267 268 267 266 267 269 271 272 272 270 268 268 268 267 267 268 268 268 268 270 nan nan nan nan nan nan nan nan nan nan nan 295 286 272 265 264 263 264 261 259 259 259 261 264 263 260 261 264 265 nan 267 nan nan nan nan nan nan nan nan nan nan nan nan nan nan nan nan nan nan nan nan nan nan nan nan nan nan nan nan nan nan nan nan nan nan
267 267 266 266 267 268 269 270 271 nan nan 268 267 267 267 268 269 271 271 271 nan nan nan nan nan nan 278 277 263 nan nan nan 281 268 263 261 260 257 257 258 256 254 254 258 259 260 264 268 nan 263 261 270 nan nan nan nan nan nan nan nan nan nan nan nan nan nan nan nan nan nan nan nan nan nan nan nan nan nan nan nan nan nan nan nan nan
265 266 267 266 267 267 267 268 268 nan 266 265 265 265 267 268 270 271 272 nan nan nan nan nan nan nan nan 283 nan nan nan nan 270 239 246 251 246 246 250 254 257 259 258 254 256 262 268 270 267 262 nan nan nan nan nan nan nan nan nan nan nan nan nan nan nan nan nan nan nan nan nan nan nan nan nan nan nan nan nan nan nan nan nan nan nan
265 263 263 263 265 266 267 267 266 265 264 264 263 263 265 267 269 271 nan nan nan nan nan nan nan nan nan nan nan nan nan 292 252 228 228 235 238 243 247 252 256 257 256 255 256 259 261 264 266 264 261 264 nan nan nan nan nan nan nan nan nan nan nan nan nan nan nan nan nan nan nan nan nan nan nan nan nan nan nan nan nan nan nan nan nan
263 264 263 264 266 265 266 266 266 265 264 264 nan nan nan nan nan nan nan nan nan nan nan nan nan nan nan nan nan nan nan nan nan nan nan nan 234 nan nan nan nan 257 255 253 252 254 258 264 nan nan nan nan nan nan nan nan nan nan nan nan nan nan nan nan nan nan nan nan nan nan nan nan nan nan nan nan nan nan nan nan nan nan nan nan nan
262 263 264 263 264 266 265 265 265 265 265 nan nan nan nan nan nan nan nan nan nan nan nan nan nan nan nan nan nan 284 284 275 nan 276 263 247 241 242 246 253 258 256 250 245 247 nan nan nan nan nan nan nan nan nan nan nan nan nan nan nan nan nan nan nan nan nan nan nan nan nan nan nan nan nan nan nan nan nan nan nan nan nan nan nan nan
262 261 261 262 263 263 263 263 264 266 267 nan nan nan nan nan 271 273 nan nan nan nan nan nan nan nan nan nan nan nan 273 260 258 270 272 264 258 259 260 260 258 255 251 nan nan nan nan nan nan nan nan nan nan nan nan nan nan nan nan nan nan nan nan nan nan nan nan nan nan nan nan nan nan nan nan nan nan nan nan nan nan nan nan nan nan
263 262 261 261 261 261 261 262 263 266 268 269 270 270 269 271 272 274 274 276 nan nan nan 282 283 282 278 nan nan nan nan nan 268 269 269 269 267 265 264 261 259 258 nan nan nan nan nan nan nan nan nan nan nan nan nan nan nan nan nan nan nan nan nan nan nan nan nan nan nan nan nan nan nan nan nan nan nan nan nan nan nan nan nan nan nan
262 261 260 259 259 261 261 263 265 267 268 269 270 270 271 271 272 272 273 273 275 278 279 nan 282 281 280 277 276 278 278 277 278 276 275 273 272 269 261 258 260 259 259 nan nan nan nan nan nan nan nan nan nan nan nan nan nan nan nan nan nan nan nan nan nan nan nan nan nan nan nan nan nan nan nan nan nan nan nan nan nan nan nan nan nan
262 260 259 260 259 260 262 265 266 267 267 268 268 268 nan nan 272 271 271 270 271 274 278 280 280 280 280 nan nan 274 271 268 267 268 268 267 267 269 270 266 258 258 261 nan nan nan nan nan nan nan nan nan nan nan nan nan nan nan nan nan nan nan nan nan nan nan nan nan nan nan nan nan nan nan nan nan nan nan nan nan nan nan nan nan nan
261 260 259 259 260 262 263 264 266 266 265 264 264 265 268 269 nan nan 271 271 271 273 275 277 277 278 278 nan nan nan nan 269 267 266 266 267 268 269 268 268 268 267 266 nan nan nan nan nan nan nan nan nan nan nan nan nan nan nan nan nan nan nan nan nan nan nan nan nan nan nan nan nan nan nan nan nan nan nan nan nan nan nan nan nan nan
259 258 nan 258 258 260 261 261 262 263 264 264 264 263 263 265 nan nan nan 267 268 271 nan 275 277 277 276 nan nan nan nan 272 272 272 270 270 272 274 273 nan 268 nan nan nan nan nan nan nan nan nan nan nan nan nan nan nan nan nan nan nan nan nan nan nan nan nan nan nan nan nan nan nan nan nan nan nan nan nan nan nan nan nan nan nan nan
nan nan nan nan nan nan nan nan nan 260 262 262 263 nan nan nan nan 264 nan nan 265 266 271 nan 280 279 278 nan nan nan nan nan 274 nan 271 nan nan nan nan nan nan nan nan nan nan nan nan nan nan nan nan nan nan nan nan nan nan nan nan nan nan nan nan nan nan nan nan nan nan nan nan nan nan nan nan nan nan nan nan nan nan nan nan nan nan
nan nan nan nan nan nan nan nan nan nan nan nan nan nan nan nan nan nan nan nan nan nan 271 277 nan 284 284 nan nan nan nan nan nan nan nan nan nan nan nan nan nan nan nan nan nan nan nan nan nan nan nan nan nan nan nan nan nan nan nan nan nan nan nan nan nan nan nan nan nan nan nan nan nan nan nan nan nan nan nan nan nan nan nan nan nan
nan nan nan nan nan nan nan nan nan nan nan nan nan nan nan nan nan nan nan 268 269 nan 276 277 279 282 284 nan 294 nan nan nan nan nan nan nan nan nan nan nan nan nan nan nan nan nan nan nan nan nan nan nan nan nan nan nan nan nan nan nan nan nan nan nan nan nan nan nan nan nan nan nan nan nan nan nan nan nan nan nan nan nan nan nan nan
nan nan nan nan nan nan nan nan nan nan nan nan nan nan nan nan nan nan nan nan 275 274 nan 277 276 273 276 nan 280 284 284 285 nan nan nan nan nan nan nan nan nan nan nan nan nan nan nan nan nan nan nan nan nan nan nan nan nan nan nan nan nan nan nan nan nan nan nan nan nan nan nan nan nan nan nan nan nan nan nan nan nan nan nan nan nan